Cairo, Egypt

12:53 PM EET on January 23, 2018 (GMT +0200)
Cairo International Airport

Weather History for HECA - December, 2012

Change the Weather History Date:

Thursday, December 13, 2012

  Actual Average Record
Temperature  
Mean Temperature 58 °F -  
Max Temperature 67 °F 65 °F 78 °F (2003)
Min Temperature 50 °F 49 °F 41 °F (2013)
Degree Days  
Heating Degree Days 6    
Growing Degree Days 8 (Base 50)    
Moisture  
Dew Point 40 °F    
Average Humidity 48    
Maximum Humidity 72    
Minimum Humidity 31    
Precipitation  
Precipitation 0.00 in 0.01 in - ()
Sea Level Pressure  
Sea Level Pressure 30.13 in    
Wind  
Wind Speed 6 mph ()    
Max Wind Speed 12 mph    
Max Gust Speed -    
Visibility 5.2 miles    
Events      
Averages and records for this station are not official NWS values.
T = Trace of Precipitation, MM = Missing Value Source: Averaged Metar Reports

Daily Weather History Graph

Daily Weather History Graph

Search for Another Location

Airport or City:

Trip Planner

Search our weather history database for the weather conditions in past years. The results will help you decide how hot, cold, wet, or windy it might be!

Date:

Astronomy

Dec. 13, 2012 Rise Set
Actual Time 6:41 AM EET 4:55 PM EET
Civil Twilight 6:15 AM EET 5:21 PM EET
Nautical Twilight 5:45 AM EET 5:51 PM EET
Astronomical Twilight 5:16 AM EET 6:21 PM EET
Moon 6:30 AM EET (12/13) 5:13 PM EET (12/13)
Length of Visible Light 11h 06m
Length of Day
10h 13m
New Moon, 0% of the Moon is Illuminated
Dec 13
New Moon
Dec 20
First Quarter
Dec 28
Full
Jan 5
Last Quarter
Jan 11
New

Hourly Weather History & Observations

Time (EET) Temp. Dew Point Humidity Pressure Visibility Wind Dir Wind Speed Gust Speed Precip Events Conditions
12:00 AM 55.4 °F 32.0 °F 41% 30.12 in - West 3.5 mph - N/A   Clear
12:30 AM 53.6 °F 32.0 °F 44% 30.12 in - SW 3.5 mph - N/A   Clear
1:00 AM 51.8 °F 32.0 °F 47% 30.09 in - South 4.6 mph - N/A   Clear
1:30 AM 51.8 °F 30.2 °F 44% 30.12 in - SSW 3.5 mph - N/A   Clear
2:00 AM 51 °F 32 °F 35% 30.14 in 6 mi South 5.8 mph - -  
2:00 AM 51.8 °F 32.0 °F 47% 30.09 in - South 5.8 mph - N/A   Clear
2:30 AM 50.0 °F 32.0 °F 50% 30.09 in - South 3.5 mph - N/A   Clear
3:00 AM 50.0 °F 30.2 °F 47% 30.09 in - SSW 3.5 mph - N/A   Clear
3:30 AM 51.8 °F 32.0 °F 47% 30.09 in - South 5.8 mph - N/A   Clear
4:00 AM 51.8 °F 32.0 °F 47% 30.09 in - South 4.6 mph - N/A   Clear
4:30 AM 53.6 °F 32.0 °F 44% 30.09 in - SW 8.1 mph - N/A   Clear
5:00 AM 53.6 °F 32.0 °F 44% 30.09 in - WSW 6.9 mph - N/A   Clear
5:30 AM 51.8 °F 32.0 °F 47% 30.09 in - South 6.9 mph - N/A   Clear
6:00 AM 51.8 °F 30.2 °F 44% 30.09 in - South 9.2 mph - N/A   Clear
6:30 AM 53.6 °F 33.8 °F 47% 30.12 in - South 9.2 mph - N/A   Clear
7:00 AM 55.4 °F 33.8 °F 44% 30.12 in - SSW 11.5 mph - N/A   Clear
7:30 AM 55.4 °F 33.8 °F 44% 30.12 in - SSW 11.5 mph - N/A   Clear
8:00 AM 55 °F 33 °F 31% 30.15 in 6 mi SSW 10.4 mph - -   Scattered Clouds
8:00 AM 55.4 °F 33.8 °F 44% 30.12 in 6.2 mi SSW 10.4 mph - N/A   Mostly Cloudy
8:30 AM 55.4 °F 33.8 °F 44% 30.12 in 6.2 mi SSW 10.4 mph - N/A   Mostly Cloudy
9:00 AM 57.2 °F 33.8 °F 41% 30.15 in 6.2 mi SW 8.1 mph - N/A   Mostly Cloudy
9:30 AM 59.0 °F 33.8 °F 39% 30.15 in - SSW 6.9 mph - N/A   Clear
10:00 AM 60.8 °F 35.6 °F 39% 30.15 in - SSW 8.1 mph - N/A   Clear
10:30 AM 62.6 °F 35.6 °F 37% 30.15 in 3.7 mi WSW 10.4 mph - N/A   Unknown
11:00 AM 62.6 °F 39.2 °F 42% 30.15 in 3.7 mi SW 9.2 mph - N/A   Unknown
11:30 AM 62.6 °F 39.2 °F 42% 30.15 in 3.7 mi SW 9.2 mph - N/A   Unknown
12:00 PM 64.4 °F 37.4 °F 37% 30.12 in 3.7 mi WSW 6.9 mph - N/A   Unknown
12:30 PM 64.4 °F 41.0 °F 42% 30.12 in - West 8.1 mph - N/A   Clear
1:00 PM 64.4 °F 41.0 °F 42% 30.12 in - West 10.4 mph - N/A   Clear
1:30 PM 66.2 °F 41.0 °F 40% 30.09 in - West 8.1 mph - N/A   Clear
2:00 PM 67 °F 48 °F 39% 30.10 in 6 mi NW 8.1 mph - -  
2:00 PM 66.2 °F 48.2 °F 52% 30.09 in - NW 8.1 mph - N/A   Clear
2:30 PM 66.2 °F 48.2 °F 52% 30.09 in - NW 8.1 mph - N/A   Clear
3:00 PM 68.0 °F 48.2 °F 49% 30.09 in - WNW 9.2 mph - N/A   Clear
3:30 PM 66.2 °F 42.8 °F 43% 30.12 in - NNW 8.1 mph - N/A   Clear
4:00 PM 66.2 °F 44.6 °F 46% 30.12 in - WNW 9.2 mph - N/A   Clear
4:30 PM 66.2 °F 44.6 °F 46% 30.12 in - NW 5.8 mph - N/A   Clear
5:00 PM 66.2 °F 46.4 °F 49% 30.12 in - NNW 5.8 mph - N/A   Clear
5:30 PM 66.2 °F 46.4 °F 49% 30.12 in - NNW 5.8 mph - N/A   Clear
6:00 PM 64.4 °F 46.4 °F 52% 30.15 in - North 4.6 mph - N/A   Clear
6:30 PM 64.4 °F 46.4 °F 52% 30.15 in - North 4.6 mph - N/A   Clear
7:00 PM 64.4 °F 46.4 °F 52% 30.15 in - North 4.6 mph - N/A   Clear
7:30 PM 64.4 °F 46.4 °F 52% 30.15 in - North 4.6 mph - N/A   Clear
8:00 PM 63 °F 48 °F 48% 30.17 in 6 mi NW 4.6 mph - -   Partly Cloudy
8:00 PM 62.6 °F 48.2 °F 59% 30.15 in - NW 4.6 mph - N/A   Clear
8:30 PM 62.6 °F 48.2 °F 59% 30.15 in - NW 4.6 mph - N/A   Clear
9:00 PM 62.6 °F 50.0 °F 63% 30.18 in - NNW 6.9 mph - N/A   Clear
9:30 PM 62.6 °F 50.0 °F 63% 30.18 in - NNW 6.9 mph - N/A   Clear
10:00 PM 60.8 °F 48.2 °F 63% 30.18 in - Calm Calm - N/A   Clear
10:30 PM 59.0 °F 48.2 °F 67% 30.18 in - Calm Calm - N/A   Clear
11:00 PM 60.8 °F 50.0 °F 68% 30.18 in - NNW 3.5 mph - N/A   Clear
11:30 PM 59.0 °F 50.0 °F 72% 30.18 in - NNW 3.5 mph - N/A   Clear